This demonstration page uses our WeatherBlox Daily Observations layout. Learn more.

Left ArrowRight Arrow

Hourly Observations for January 21, 2017

Temp ( °F °C ) Dew Point ( °F °C ) Humidity (%) Winds ( mph kmh ) Pressure ( in mb ) Visibility ( mi km ) Precip ( " mm )
12:15 am 00:15 Cloudy 35 1.5 34 1.1 97 97 W 7 11 29.47 998 7 11 0.00 0.00
12:35 am 00:35 Cloudy 35 1.5 34 1.1 97 97 W 7 11 29.47 998 10 16 0.00 0.00
12:55 am 00:55 Cloudy 34 1 33 0.6 97 97 W 5 7 29.47 998 7 11 0.00 0.00
1:15 am 01:15 Mostly Cloudy 34 1 33 0.5 97 97 W 6 9 29.47 998 10 16 0.00 0.00
1:35 am 01:35 Cloudy 33 0.8 33 0.5 98 98 W 6 9 29.47 998 7 11 0.00 0.00
1:55 am 01:55 Cloudy 34 1 33 0.5 97 97 W 7 11 29.47 998 10 16 0.00 0.00
2:15 am 02:15 Partly Cloudy 34 1 33 0.5 97 97 W 7 11 29.47 998 10 16 0.00 0.00
2:35 am 02:35 Mostly Cloudy 34 1 33 0.6 97 97 W 8 13 29.47 998 10 16 0.00 0.00
2:55 am 02:55 Cloudy 34 1 33 0.7 98 98 W 8 13 29.47 998 10 16 0.00 0.00
3:15 am 03:15 Mostly Cloudy 33 0.8 33 0.5 98 98 W 8 13 29.47 998 10 16 0.00 0.00
3:35 am 03:35 Mostly Cloudy 34 1 33 0.5 97 97 W 8 13 29.47 998 10 16 0.00 0.00
3:55 am 03:55 Partly Cloudy 33 0.8 33 0.4 97 97 W 6 9 29.47 998 10 16 0.00 0.00
4:15 am 04:15 Clear 33 0.5 32 0 96 96 W 6 9 29.47 998 10 16 0.00 0.00
4:35 am 04:35 Clear 33 0.6 32 0 96 96 WNW 5 7 29.47 998 10 16 0.00 0.00
4:55 am 04:55 Clear 33 0.5 32 -0.1 96 96 W 7 11 29.47 998 10 16 0.00 0.00
5:15 am 05:15 Clear 33 0.7 32 0 95 95 W 10 17 29.47 998 10 16 0.00 0.00
5:35 am 05:35 Clear 33 0.8 32 0 94 94 W 9 15 29.47 998 10 16 0.00 0.00
5:55 am 05:55 Clear 33 0.8 32 0 94 94 W 8 13 29.47 998 10 16 0.00 0.00
6:15 am 06:15 Clear 32 0.2 31 -0.5 95 95 W 6 9 29.50 999 10 16 0.00 0.00
6:35 am 06:35 Clear 32 0 31 -0.6 96 96 SW 3 6 29.50 999 10 16 0.00 0.00
6:55 am 06:55 Clear 31 -0.5 30 -1.1 96 96 WSW 5 7 29.50 999 10 16 0.00 0.00
7:15 am 07:15 Clear 32 -0.2 30 -1 94 94 WSW 5 7 29.53 1000 10 16 0.00 0.00
7:35 am 07:35 Clear 32 0 31 -0.6 96 96 W 3 6 29.53 1000 10 16 0.00 0.00
7:55 am 07:55 Sunny 31 -0.4 30 -1.2 94 94 NNW 5 7 29.53 1000 10 16 0.00 0.00
8:15 am 08:15 Sunny 31 -0.3 30 -1 95 95 WSW 5 7 29.53 1000 10 16 0.00 0.00
8:35 am 08:35 Sunny 32 0 31 -0.5 96 96 W 6 9 29.50 999 10 16 0.00 0.00
8:55 am 08:55 Sunny 32 0.1 31 -0.4 96 96 WSW 7 11 29.53 1000 10 16 0.00 0.00
9:15 am 09:15 Sunny 34 1.1 32 0 92 92 W 6 9 29.50 999 10 16 0.00 0.00
9:35 am 09:35 Sunny 35 1.5 33 0.3 92 92 W 7 11 29.50 999 10 16 0.00 0.00
9:55 am 09:55 Sunny 37 2.5 34 0.9 89 89 W 7 11 29.50 999 10 16 0.00 0.00
10:15 am 10:15 Sunny 38 3.1 34 1.3 88 88 W 6 9 29.50 999 10 16 0.00 0.00
10:35 am 10:35 Sunny 38 3.6 35 1.6 87 87 W 6 9 29.50 999 10 16 0.00 0.00
10:55 am 10:55 Sunny 40 4.5 36 2.2 85 85 W 5 7 29.47 998 10 16 0.00 0.00
11:15 am 11:15 Sunny 40 4.7 36 2 83 83 WNW 7 11 29.47 998 10 16 0.00 0.00
11:35 am 11:35 Sunny 41 5.2 36 2.3 82 82 NW 6 9 29.47 998 10 16 0.00 0.00
11:55 am 11:55 Sunny 43 5.9 37 2.6 80 80 NNW 10 17 29.47 998 10 16 0.00 0.00
12:15 pm 12:15 Sunny 43 6.3 37 2.8 79 79 W 6 9 29.47 998 10 16 0.00 0.00
12:35 pm 12:35 Sunny 44 6.6 37 2.7 76 76 W 3 6 29.47 998 10 16 0.00 0.00
12:55 pm 12:55 Sunny 46 7.5 38 3.1 74 74 SW 5 7 29.44 997 10 16 0.00 0.00
1:15 pm 13:15 Sunny 47 8.1 38 3.2 71 71 Calm 29.44 997 10 16 0.00 0.00
1:35 pm 13:35 Sunny 47 8.5 37 3 69 69 Calm 29.44 997 10 16 0.00 0.00
1:55 pm 13:55 Sunny 47 8.6 36 2 64 64 W 3 6 29.41 996 10 16 0.00 0.00
2:15 pm 14:15 Sunny 48 8.8 36 2.2 64 64 Calm 29.41 996 10 16 0.00 0.00
2:35 pm 14:35 Sunny 49 9.5 37 2.8 63 63 WNW 3 6 29.41 996 10 16 0.00 0.00
2:55 pm 14:55 Sunny 49 9.3 36 2.4 62 62 Calm 29.41 996 10 16 0.00 0.00
3:15 pm 15:15 Sunny 49 9.5 37 2.6 62 62 Calm 29.41 996 10 16 0.00 0.00
3:35 pm 15:35 Sunny 49 9.3 37 2.9 65 65 Calm 29.44 997 10 16 0.00 0.00
3:55 pm 15:55 Sunny 49 9.5 37 2.5 62 62 Calm 29.44 997 10 16 0.00 0.00
4:15 pm 16:15 Sunny 49 9.3 37 2.5 63 63 Calm 29.44 997 10 16 0.00 0.00
4:35 pm 16:35 Sunny 49 9.5 36 2.1 60 60 Calm 29.44 997 10 16 0.00 0.00
4:55 pm 16:55 Sunny 48 9.1 35 1.9 61 61 Calm 29.44 997 10 16 0.00 0.00
5:15 pm 17:15 Sunny 47 8.3 36 2 65 65 Calm 29.47 998 10 16 0.00 0.00
5:35 pm 17:35 Sunny 45 7.1 36 2.4 72 72 Calm 29.50 999 10 16 0.00 0.00
5:55 pm 17:55 Clear 42 5.6 36 2.4 80 80 Calm 29.50 999 10 16 0.00 0.00
6:15 pm 18:15 Clear 40 4.4 35 1.8 83 83 Calm 29.50 999 10 16 0.00 0.00
6:35 pm 18:35 Clear 36 2.3 33 0.6 89 89 NE 5 7 29.53 1000 10 16 0.00 0.00
6:55 pm 18:55 Clear 37 2.8 34 0.9 87 87 Calm 29.56 1001 10 16 0.00 0.00
7:15 pm 19:15 Clear 36 2.2 33 0.6 89 89 Calm 29.56 1001 10 16 0.00 0.00
7:35 pm 19:35 Clear 35 1.9 33 0.7 92 92 Calm 29.56 1001 10 16 0.00 0.00
7:55 pm 19:55 Clear 34 1.3 32 0.2 92 92 NNE 3 6 29.56 1001 10 16 0.00 0.00
8:15 pm 20:15 Clear 35 1.5 33 0.6 94 94 Calm 29.62 1003 10 16 0.00 0.00
8:35 pm 20:35 Clear 33 0.8 32 0 94 94 N 3 6 29.62 1003 10 16 0.00 0.00
8:55 pm 20:55 Clear 33 0.3 32 -0.2 96 96 N 3 6 29.62 1003 10 16 0.00 0.00
9:15 pm 21:15 Clear 33 0.7 32 0 95 95 N 5 7 29.62 1003 10 16 0.00 0.00
9:35 pm 21:35 Clear 33 0.4 32 -0.2 96 96 NNE 6 9 29.62 1003 10 16 0.00 0.00
9:55 pm 21:55 Clear 35 1.5 33 0.3 92 92 N 3 6 29.65 1004 10 16 0.00 0.00
10:15 pm 22:15 Clear 33 0.6 32 -0.2 94 94 N 3 6 29.65 1004 10 16 0.00 0.00
10:35 pm 22:35 Clear 35 1.5 33 0.5 93 93 N 6 9 29.65 1004 10 16 0.00 0.00
10:55 pm 22:55 Clear 33 0.8 32 -0.2 93 93 NW 6 9 29.68 1005 10 16 0.00 0.00
11:15 pm 23:15 Clear 33 0.3 31 -0.4 95 95 NW 5 7 29.68 1005 10 16 0.00 0.00
11:35 pm 23:35 Clear 33 0.5 32 -0.2 95 95 NW 6 9 29.68 1005 10 16 0.00 0.00
11:55 pm 23:55 Clear 33 0.6 31 -0.5 92 92 NW 7 11 29.68 1005 10 16 0.00 0.00

Powered by AerisWeather